Location: Albany
(35.0170°S, 117.8920°E)
Time: 01:35:17
(UTC+08:00)

Explorer 7 - Pass Details

Date: 30 January 2021
Orbit: 484 x 677 km, 50.3° (Epoch: 01 March)

Event Time Altitude Azimuth Distance (km) Brightness Sun altitude
Rises 13:30:43 0° 314° (NW) 3,003 10.9 66.8°
Reaches altitude 10° 13:33:03 10° 314° (NW) 2,107 10.3 66.4°
Maximum altitude 13:37:58 84° 40° (NE) 692 8.8 65.7°
Drops below altitude 10° 13:42:55 10° 129° (SE) 2,122 9.7 64.9°
Sets 13:45:16 0° 129° (SE) 3,027 10.3 64.5°
